Flag for Germany Weather past 2 weeks in Trier, Rhineland-Palatinate, Germany

Now
46 °F

Clear.


Feels Like: 46 °F
Forecast: 42 / 67 °F
Wind: 2 mph from Southeast

Location: Trier-Petrisberg

Current Time: May 31, 2015 at 1:37:16 AM

Latest Report: May 31, 2015 at 1:00 AM


Visibility: 22 mi

Pressure: 30.07 "Hg

Humidity: 83%

Dew point: 41 °F

Location of TrierLocation

Historic Weather in Trier — Graph

°F

Trier temperature yesterday

Maximum temperature yesterday: 61 °F (at 3:00 PM)
Minimum temperature yesterday: 47 °F (at 7:00 AM)
Average temperature yesterday: 54 °F

Past Weeks' High & Low Weather Summary

 TemperatureHumidityPressure
High70 °F (May 24, 5:00 PM)100% (May 21, 8:00 AM)30.35 "Hg (May 21, 8:00 AM)
Low37 °F (May 21, 7:00 AM)30% (May 21, 6:00 PM)29.70 "Hg (May 19, 1:00 AM)
Average55 °F70%30.08 "Hg
* Reported May 16 1:00 AM — Midnight between May 30 and May 31, Trier, Weather by CustomWeather, © 2015

Note: Actual official high and low records may vary slightly from our data, if they occured in-between our weather recording intervals... More about our weather records

Advertising

Trier weather history for previous 24 hours

 ConditionsComfort  
Time TempWeatherWind HumidityBarometerVisibility
12:00 AM
Sun, May 31
47 °FClear.1 mph78%30.07 "Hg28 mi
11:00 PM
Sat, May 30
49 °FClear.2 mph74%30.06 "Hg31 mi
10:00 PM53 °FClear.1 mph63%30.06 "Hg31 mi
9:00 PM57 °FPassing clouds.3 mph49%30.04 "Hg37 mi
8:00 PM59 °FScattered clouds.5 mph47%30.04 "Hg25 mi
7:00 PM59 °FScattered clouds.5 mph45%30.03 "Hg25 mi
6:00 PM60 °FScattered clouds.5 mph44%30.03 "Hg13 mi
5:00 PM59 °FOvercast.6 mph46%30.03 "Hg25 mi
4:00 PM60 °FOvercast.7 mph43%30.01 "Hg25 mi
3:00 PM61 °FOvercast.7 mph44%30.00 "Hg25 mi
2:00 PM60 °FOvercast.8 mph45%30.00 "Hg25 mi
1:00 PM57 °FOvercast.8 mph47%30.00 "Hg25 mi
12:00 PM56 °FOvercast.6 mph59%30.00 "Hg25 mi
11:00 AM54 °FOvercast.5 mph64%29.99 "Hg25 mi
10:00 AM52 °FOvercast.5 mph72%29.99 "Hg25 mi
9:00 AM51 °FOvercast.3 mph80%29.97 "Hg19 mi
8:00 AM48 °FOvercast.3 mph88%29.96 "Hg25 mi
7:00 AM47 °FPartly sunny.3 mph90%29.95 "Hg22 mi
6:00 AM48 °FPartly sunny.3 mph91%29.92 "Hg22 mi
5:00 AM50 °FOvercast.6 mph91%29.90 "Hg22 mi
4:00 AM50 °FOvercast.5 mph94%29.88 "Hg19 mi
3:00 AM51 °FOvercast.7 mph88%29.88 "Hg25 mi
2:00 AM52 °FDrizzle. Overcast.8 mph89%29.87 "Hg9 mi
1:00 AM54 °FOvercast.5 mph82%29.85 "Hg17 mi
Weather by CustomWeather, © 2015

See weather overviewHow to use our weather pages